Location: Unspecified
(40.7945°N, 0.0000°E)
Time: 06:16:15
(UTC+00:00)

Tiros 1 despin weight - Pass Details

Date: 30 January 2021
Orbit: 593 x 642 km, 48.2° (Epoch: 04 March)

Event Time Altitude Azimuth Distance (km) Brightness Sun altitude
Rises 18:33:01 0° 292° (WNW) 2,859 ? -14.9°
Reaches altitude 10° 18:35:33 10° 281° (W) 1,944 ? -15.4°
Maximum altitude 18:39:21 28° 223° (SW) 1,128 ? -16.1°
Drops below altitude 10° 18:43:07 10° 164° (SSE) 1,918 ? -16.8°
Sets 18:45:37 0° 152° (SSE) 2,812 ? -17.3°
